{"data":{"norad_id":53069,"epoch":"2026-05-25T02:19:04.637280Z","epoch_age_seconds":60716,"freshness":"FRESH","line1":"1 53069U 22077AC  26145.09658145  .00000106  00000+0  11374-4 0  9993","line2":"2 53069  97.4466 324.9882 0000975 125.2552 234.8767 15.05651605212400","mean_motion":15.05651605,"eccentricity":9.75e-5,"inclination_deg":97.4466,"raan_deg":324.9882,"arg_perigee_deg":125.2552,"mean_anomaly_deg":234.8767,"bstar":1.1374e-5,"rev_number":21240,"period_min":95.6396549652,"perigee_km":548.8307856501,"apogee_km":550.18167608012,"semimajor_km":6927.6432308651,"source":"CELESTRAK","updated_at":"2026-05-25T13:38:17.311276Z"}}